sat.trackr.live / text

‹ back to catalog

STARLINK-4251

NORAD 53083 · 2022-077AS

PAYLOAD ACTIVE UNKNOWN

§ Identity

Operator
Country
US
Launch date
2022-07-11
Launch site
AFWTR
Launch vehicle
Mass (kg)
RCS (m²)

Purposes: comms

External: N2YO · Heavens-Above · Gunter

§ Orbital elements

Epoch: 2026-05-25T01:09:15.141888Z

Period
95.64 min
Inclination
97.4484°
Eccentricity
0.0001312
Mean motion
15.05653872 rev/d
Perigee alt
548.6 km
Apogee alt
550.4 km
Semi-major
6,927.6 km
B*
2.0317e-6
RAAN
326.0597°
Arg perigee
88.5926°
Mean anomaly
271.5452°
Rev number
21,247

§ Raw data

STARLINK-42511 53083U 22077AS  26145.04809192 -.00000029  00000+0  20317-5 0  99972 53083  97.4484 326.0597 0001312  88.5926 271.5452 15.05653872212478

JSON: /api/v1/satellites/53083 · /tle

For live sub-satellite position, see the globe view (requires WebGL).

§ Visibility from observer

Set your observer location to see the next 7 days of passes ≥ 10°. The values pass through the URL so the page stays shareable.

No JS? Fill the form by hand. The geolocation button needs JavaScript.